CZ-6A DEB, 54292

Orbit data source: Space-Track

CZ-6A DEB, 54292 is space debris in SSO originally from a launch on Fri, 11 Nov 2022 UTC launched from the Taiyaun Space Center, China (TSC). Debris objects in space refer to the collection of defunct objects orbiting the Earth. Examples of debris include non-operational satellites, rocket bodies, and fragments generated from explosions, collisions, or faulty payload assembly.

Loading next visibility...
Identifier
54292, 2022-151AK
Orbit
SSO
Country
Flag of CNCN / PRC
Related business
Manufacturer
SAST
Mission
Spacecraft
Bus & Motor
Unknown
Mass
Unknown
Launch date (UTC)
2022-11-11 (3 years ago)
Launch vehicle
Unknown
Launch site
Taiyaun Space Center, China (TSC)
Object type
Payload
Rocket body
Debris
Shape & HBR
Unknown shape, 0.2 m
Radar Cross Section
Small (<0.1 m²)

Expand to show TLE details & history
Last TLE update: 10 hours ago

TLE from 10 hours ago
0 CZ-6A DEB
1 54292U 22151AK  25353.21405389  .00000154  00000-0  11860-3 0  9992
2 54292  98.8621 346.3146 0062680 148.8512 211.6395 14.05747360158644
Epoch: 2025-12-19T05:08Z
TLE epoch observation values (Epoch: 2025-12-19T05:08:14.256Z)
Latitude
-0.00003°
Longitude
-178.80322°
Altitude
915.636 km
Speed
7.374 km/s
True Right ascension
23h 05m 15s
True Declination
0° 00' 00"
Sunlit
Object was in daylight at epoch
Visualization orbit readout
Latitude
Unknown
Longitude
Unknown
Altitude
Unknown
Speed
Unknown
Apparent Right ascension
Unknown
Apparent Declination
Unknown
Sunlit
N/A
Visualization observer readout
Local Sidereal Time
13:33:19
Azimuth
Unknown
Elevation
Unknown
Doppler factor
Unknown
Orbital elements
Apogee altitude
916.584 km
Perigee altitude
825.707 km
Semi-major axis
7,249.283 km
Eccentricity
0.00627
Inclination
98.8621°
RAAN
346.3146°
Arg. of periapsis
148.8512°
True anomaly
211.26522°
Mean anomaly
211.6395°
Eccentric anomaly
211.45211°
Mean motion
3.51642 °/min
Orbital period
102.38 mins
BSTAR
0.0001186
Loading maneuver chart data...
Computing Atmospheric mass density...
Loading historical data...
Loading historical data...
Loading historical data...
Loading historical data...
Loading historical data...
Loading historical data...
Loading historical data...

Documentation

Showing up to 5 results
|